QPF
0.04 0.04 0.05 0.06 0.06 0.06 0.07 0.08 0.08 0.08 0.09 0.09 0.08 0.07 0.08 0.08 0.10 0.11 0.09 0.11 0.12 0.11 0.10 0.11 0.10 0.11 0.11 0.08 0.06 0.06 0.07 0.09 0.08 0.06 0.07 0.07 0.07 0.06 0.05 0.05 0.03 0.03 0.02
0.04 0.04 0.05 0.07 0.06 0.05 0.06 0.09 0.09 0.08 0.08 0.09 0.09 0.07 0.07 0.10 0.12 0.10 0.10 0.12 0.14 0.13 0.12 0.14 0.10 0.11 0.11 0.09 0.08 0.07 0.09 0.11 0.10 0.10 0.09 0.07 0.09 0.09 0.08 0.07 0.05 0.04 0.03
0.04 0.03 0.05 0.06 0.06 0.05 0.07 0.10 0.08 0.08 0.07 0.08 0.08 0.08 0.09 0.11 0.13 0.12 0.11 0.11 0.11 0.11 0.12 0.13 0.11 0.12 0.12 0.13 0.11 0.11 0.12 0.11 0.10 0.08 0.07 0.09 0.09 0.10 0.12 0.09 0.07 0.05 0.02
0.04 0.03 0.03 0.05 0.06 0.06 0.07 0.08 0.07 0.06 0.07 0.09 0.11 0.10 0.09 0.09 0.11 0.13 0.13 0.13 0.14 0.14 0.13 0.13 0.13 0.14 0.14 0.16 0.15 0.16 0.14 0.12 0.11 0.09 0.08 0.09 0.09 0.10 0.11 0.10 0.11 0.08 0.05
0.02 0.02 0.03 0.05 0.07 0.07 0.06 0.07 0.06 0.06 0.06 0.08 0.10 0.10 0.09 0.08 0.08 0.09 0.09 0.09 0.11 0.11 0.10 0.08 0.06 0.07 0.09 0.12 0.10 0.13 0.12 0.10 0.08 0.08 0.08 0.09 0.10 0.13 0.13 0.13 0.13 0.11 0.09
0.02 0.03 0.05 0.06 0.06 0.06 0.07 0.08 0.06 0.06 0.07 0.08 0.09 0.09 0.09 0.05 0.06 0.07 0.08 0.08 0.10 0.09 0.09 0.10 0.09 0.08 0.08 0.09 0.09 0.09 0.11 0.11 0.09 0.09 0.09 0.09 0.11 0.13 0.14 0.14 0.15 0.13 0.10
0.04 0.05 0.05 0.06 0.08 0.10 0.10 0.10 0.08 0.08 0.08 0.07 0.07 0.08 0.08 0.07 0.07 0.05 0.05 0.07 0.09 0.10 0.11 0.12 0.10 0.09 0.09 0.09 0.09 0.09 0.09 0.09 0.08 0.08 0.08 0.08 0.09 0.11 0.14 0.13 0.13 0.12 0.09
0.04 0.05 0.04 0.05 0.05 0.07 0.09 0.08 0.08 0.08 0.08 0.07 0.08 0.08 0.09 0.08 0.09 0.06 0.04 0.06 0.08 0.08 0.08 0.09 0.10 0.10 0.10 0.10 0.08 0.08 0.07 0.07 0.07 0.08 0.07 0.07 0.09 0.10 0.11 0.11 0.12 0.11 0.10
0.04 0.03 0.03 0.05 0.06 0.06 0.06 0.06 0.07 0.08 0.08 0.07 0.08 0.09 0.10 0.08 0.09 0.06 0.05 0.06 0.06 0.06 0.08 0.11 0.13 0.16 0.17 0.15 0.12 0.10 0.08 0.09 0.10 0.10 0.08 0.06 0.05 0.05 0.05 0.07 0.09 0.10 0.10
0.04 0.03 0.03 0.05 0.06 0.06 0.06 0.06 0.08 0.08 0.09 0.09 0.09 0.09 0.08 0.05 0.05 0.04 0.05 0.05 0.06 0.08 0.11 0.14 0.17 0.19 0.20 0.20 0.19 0.16 0.14 0.13 0.12 0.11 0.10 0.08 0.07 0.06 0.06 0.05 0.06 0.09 0.11
0.04 0.03 0.03 0.03 0.04 0.05 0.06 0.07 0.08 0.08 0.10 0.10 0.10 0.08 0.06 0.04 0.03 0.03 0.03 0.02 0.04 0.07 0.09 0.11 0.13 0.15 0.15 0.16 0.16 0.16 0.13 0.11 0.09 0.08 0.08 0.09 0.09 0.08 0.07 0.06 0.06 0.07 0.09
0.05 0.04 0.03 0.03 0.03 0.04 0.05 0.06 0.09 0.09 0.08 0.07 0.07 0.06 0.05 0.04 0.03 0.02 0.02 0.02 0.03 0.05 0.09 0.12 0.14 0.15 0.15 0.15 0.13 0.12 0.12 0.11 0.10 0.10 0.10 0.09 0.08 0.07 0.07 0.06 0.06 0.07 0.07
0.06 0.05 0.04 0.03 0.04 0.05 0.06 0.07 0.08 0.08 0.08 0.08 0.07 0.05 0.04 0.04 0.04 0.03 0.02 0.02 0.03 0.05 0.09 0.12 0.12 0.13 0.12 0.11 0.10 0.08 0.07 0.06 0.07 0.08 0.08 0.08 0.08 0.08 0.07 0.06 0.06 0.06 0.05
0.06 0.07 0.05 0.04 0.04 0.05 0.06 0.07 0.07 0.07 0.07 0.08 0.08 0.07 0.06 0.06 0.05 0.04 0.03 0.03 0.04 0.06 0.08 0.09 0.08 0.07 0.06 0.06 0.08 0.07 0.06 0.05 0.05 0.05 0.06 0.07 0.06 0.05 0.05 0.04 0.03 0.03 0.03
0.07 0.06 0.05 0.04 0.04 0.05 0.05 0.04 0.06 0.07 0.07 0.07 0.08 0.08 0.07 0.06 0.05 0.05 0.04 0.05 0.05 0.05 0.04 0.04 0.05 0.05 0.04 0.05 0.06 0.07 0.07 0.06 0.05 0.04 0.05 0.05 0.05 0.05 0.04 0.04 0.04 0.04 0.04
0.05 0.05 0.05 0.05 0.05 0.05 0.06 0.04 0.04 0.05 0.06 0.05 0.06 0.06 0.07 0.06 0.06 0.05 0.04 0.03 0.03 0.03 0.02 0.03 0.04 0.04 0.05 0.06 0.08 0.09 0.09 0.08 0.07 0.06 0.07 0.08 0.08 0.07 0.05 0.05 0.05 0.04 0.04
0.04 0.04 0.05 0.05 0.05 0.05 0.06 0.07 0.06 0.05 0.05 0.04 0.04 0.04 0.04 0.03 0.02 0.02 0.01 0.02 0.02 0.02 0.02 0.02 0.03 0.04 0.05 0.06 0.07 0.07 0.07 0.07 0.06 0.06 0.06 0.06 0.07 0.05 0.04 0.03 0.04 0.04 0.03
0.04 0.04 0.04 0.05 0.05 0.05 0.06 0.06 0.06 0.06 0.06 0.05 0.04 0.05 0.05 0.05 0.04 0.03 0.03 0.02 0.02 0.02 0.02 0.03 0.04 0.05 0.04 0.04 0.04 0.04 0.04 0.05 0.04 0.04 0.04 0.05 0.04 0.03 0.03 0.03 0.03 0.03 0.03
0.04 0.04 0.04 0.05 0.04 0.04 0.04 0.04 0.04 0.05 0.04 0.03 0.03 0.05 0.06 0.07 0.07 0.07 0.05 0.04 0.04 0.04 0.04 0.05 0.05 0.05 0.04 0.03 0.04 0.03 0.03 0.04 0.03 0.03 0.03 0.03 0.03 0.03 0.03 0.04 0.04 0.03 0.03
0.04 0.04 0.04 0.04 0.04 0.03 0.02 0.03 0.02 0.03 0.04 0.04 0.05 0.06 0.07 0.07 0.06 0.06 0.05 0.05 0.05 0.05 0.05 0.05 0.06 0.05 0.05 0.04 0.04 0.04 0.03 0.03 0.03 0.03 0.03 0.03 0.03 0.03 0.03 0.03 0.02 0.02 0.02
0.03 0.03 0.04 0.03 0.04 0.03 0.03 0.03 0.02 0.03 0.03 0.03 0.03 0.04 0.05 0.04 0.04 0.03 0.03 0.04 0.04 0.04 0.05 0.05 0.05 0.05 0.05 0.05 0.04 0.04 0.04 0.04 0.05 0.04 0.03 0.02 0.02 0.01 0.01 0.01 0.01 0.01 0.01
0.06 0.04 0.03 0.04 0.04 0.04 0.03 0.03 0.03 0.02 0.02 0.02 0.03 0.03 0.03 0.03 0.02 0.03 0.03 0.03 0.03 0.04 0.05 0.04 0.04 0.04 0.03 0.03 0.03 0.04 0.05 0.04 0.02 0.02 0.01 0.01 0.00 0.00 0.01 0.01 0.01 0.01 0.01
0.07 0.06 0.05 0.05 0.05 0.04 0.03 0.03 0.03 0.02 0.02 0.02 0.02 0.02 0.02 0.02 0.03 0.03 0.03 0.04 0.04 0.03 0.04 0.04 0.04 0.04 0.04 0.04 0.04 0.04 0.03 0.02 0.01 0.01 0.00 0.00 0.00 0.00 0.00 0.01 0.01 0.01 0.01
0.07 0.07 0.05 0.04 0.04 0.03 0.02 0.02 0.01 0.01 0.01 0.02 0.02 0.02 0.02 0.02 0.02 0.03 0.03 0.03 0.03 0.04 0.05 0.04 0.04 0.03 0.03 0.02 0.02 0.02 0.01 0.01 0.01 0.00 0.00 0.00 0.01 0.01 0.01 0.01 0.01 0.01 0.01
0.05 0.05 0.04 0.04 0.03 0.02 0.02 0.01 0.01 0.01 0.01 0.01 0.02 0.02 0.02 0.02 0.02 0.03 0.03 0.02 0.02 0.02 0.02 0.02 0.02 0.02 0.02 0.02 0.02 0.02 0.02 0.02 0.02 0.02 0.03 0.03 0.02 0.02 0.02 0.02 0.01 0.01 0.01
0.04 0.04 0.03 0.02 0.03 0.03 0.03 0.02 0.02 0.02 0.02 0.01 0.01 0.01 0.01 0.01 0.02 0.02 0.02 0.01 0.01 0.01 0.02 0.02 0.03 0.04 0.05 0.06 0.07 0.07 0.06 0.06 0.05 0.05 0.04 0.03 0.03 0.02 0.01 0.01 0.01 0.01 0.01
MSLP
1015.72 1016.03 1016.35 1016.63 1016.86 1017.01 1017.07 1017.04 1016.94 1016.76 1016.54 1016.28 1016.00 1015.72 1015.45 1015.22 1015.03 1014.90 1014.85 1014.88 1015.00 1015.20 1015.45 1015.73 1016.01 1016.28 1016.50 1016.66 1016.75 1016.76 1016.71 1016.59 1016.39 1016.13 1015.79 1015.38 1014.91 1014.38 1013.83 1013.28 1012.78 1012.37 1012.07
1016.75 1017.01 1017.30 1017.58 1017.82 1018.00 1018.11 1018.14 1018.11 1018.01 1017.86 1017.67 1017.45 1017.22 1016.99 1016.77 1016.58 1016.42 1016.31 1016.26 1016.27 1016.33 1016.43 1016.55 1016.68 1016.80 1016.90 1016.96 1016.98 1016.96 1016.89 1016.78 1016.61 1016.38 1016.09 1015.71 1015.27 1014.75 1014.19 1013.61 1013.05 1012.56 1012.16
1017.82 1018.04 1018.30 1018.56 1018.80 1019.00 1019.15 1019.22 1019.24 1019.21 1019.12 1019.00 1018.84 1018.67 1018.48 1018.30 1018.12 1017.96 1017.82 1017.72 1017.64 1017.60 1017.58 1017.58 1017.57 1017.56 1017.53 1017.48 1017.41 1017.32 1017.22 1017.09 1016.93 1016.72 1016.46 1016.13 1015.72 1015.24 1014.70 1014.13 1013.55 1013.01 1012.55
1018.86 1019.06 1019.29 1019.53 1019.76 1019.96 1020.12 1020.22 1020.28 1020.28 1020.24 1020.17 1020.07 1019.94 1019.80 1019.66 1019.51 1019.37 1019.23 1019.11 1019.00 1018.90 1018.80 1018.70 1018.59 1018.47 1018.33 1018.18 1018.02 1017.86 1017.69 1017.52 1017.34 1017.14 1016.90 1016.60 1016.24 1015.81 1015.32 1014.78 1014.23 1013.68 1013.18
1019.84 1020.01 1020.21 1020.44 1020.65 1020.84 1021.00 1021.11 1021.17 1021.19 1021.18 1021.14 1021.07 1020.98 1020.89 1020.78 1020.67 1020.55 1020.44 1020.33 1020.21 1020.09 1019.96 1019.81 1019.63 1019.44 1019.22 1018.99 1018.74 1018.50 1018.27 1018.04 1017.82 1017.60 1017.36 1017.09 1016.77 1016.40 1015.97 1015.49 1014.98 1014.45 1013.94
1020.72 1020.88 1021.06 1021.26 1021.46 1021.63 1021.77 1021.87 1021.93 1021.95 1021.95 1021.92 1021.87 1021.80 1021.73 1021.65 1021.57 1021.49 1021.41 1021.32 1021.22 1021.11 1020.98 1020.81 1020.61 1020.38 1020.11 1019.81 1019.50 1019.19 1018.88 1018.59 1018.32 1018.06 1017.81 1017.55 1017.26 1016.94 1016.57 1016.15 1015.70 1015.22 1014.73
1021.51 1021.66 1021.83 1022.01 1022.19 1022.34 1022.46 1022.54 1022.59 1022.60 1022.59 1022.56 1022.51 1022.46 1022.40 1022.34 1022.28 1022.22 1022.16 1022.10 1022.02 1021.93 1021.81 1021.64 1021.44 1021.19 1020.89 1020.56 1020.20 1019.83 1019.47 1019.12 1018.79 1018.49 1018.21 1017.94 1017.67 1017.38 1017.06 1016.70 1016.30 1015.87 1015.41
1022.24 1022.38 1022.54 1022.71 1022.86 1023.00 1023.10 1023.17 1023.20 1023.21 1023.19 1023.15 1023.10 1023.05 1022.99 1022.93 1022.88 1022.82 1022.77 1022.71 1022.64 1022.56 1022.44 1022.29 1022.08 1021.83 1021.53 1021.17 1020.79 1020.38 1019.97 1019.58 1019.20 1018.86 1018.55 1018.26 1017.98 1017.70 1017.41 1017.09 1016.74 1016.35 1015.93
1022.92 1023.06 1023.21 1023.37 1023.52 1023.64 1023.73 1023.79 1023.83 1023.83 1023.81 1023.78 1023.73 1023.67 1023.61 1023.54 1023.47 1023.40 1023.33 1023.25 1023.16 1023.06 1022.93 1022.76 1022.55 1022.29 1021.98 1021.62 1021.23 1020.80 1020.37 1019.95 1019.54 1019.16 1018.82 1018.50 1018.21 1017.93 1017.64 1017.34 1017.01 1016.65 1016.24
1023.58 1023.71 1023.87 1024.03 1024.17 1024.29 1024.39 1024.46 1024.50 1024.51 1024.51 1024.49 1024.45 1024.39 1024.32 1024.24 1024.14 1024.03 1023.91 1023.79 1023.65 1023.50 1023.32 1023.12 1022.88 1022.60 1022.28 1021.92 1021.53 1021.11 1020.67 1020.24 1019.82 1019.42 1019.05 1018.72 1018.40 1018.10 1017.80 1017.49 1017.15 1016.79 1016.40
1024.22 1024.36 1024.52 1024.68 1024.83 1024.96 1025.06 1025.15 1025.21 1025.25 1025.27 1025.27 1025.25 1025.20 1025.13 1025.03 1024.89 1024.74 1024.56 1024.36 1024.14 1023.91 1023.66 1023.40 1023.11 1022.80 1022.47 1022.11 1021.72 1021.31 1020.90 1020.48 1020.06 1019.67 1019.28 1018.92 1018.58 1018.25 1017.92 1017.59 1017.23 1016.86 1016.46
1024.83 1024.99 1025.16 1025.32 1025.48 1025.61 1025.74 1025.84 1025.93 1026.00 1026.06 1026.09 1026.09 1026.06 1025.98 1025.86 1025.70 1025.48 1025.23 1024.95 1024.64 1024.31 1023.97 1023.63 1023.28 1022.93 1022.58 1022.22 1021.84 1021.46 1021.08 1020.69 1020.30 1019.91 1019.53 1019.16 1018.79 1018.43 1018.06 1017.69 1017.31 1016.91 1016.49
1025.41 1025.58 1025.76 1025.93 1026.08 1026.23 1026.36 1026.48 1026.60 1026.70 1026.78 1026.84 1026.87 1026.85 1026.78 1026.65 1026.45 1026.19 1025.88 1025.51 1025.11 1024.69 1024.27 1023.84 1023.43 1023.04 1022.66 1022.30 1021.95 1021.60 1021.25 1020.90 1020.54 1020.18 1019.80 1019.42 1019.04 1018.64 1018.24 1017.83 1017.41 1016.98 1016.54
1025.94 1026.12 1026.30 1026.47 1026.62 1026.76 1026.90 1027.02 1027.14 1027.26 1027.36 1027.44 1027.49 1027.49 1027.42 1027.28 1027.06 1026.77 1026.40 1025.98 1025.51 1025.01 1024.52 1024.03 1023.57 1023.15 1022.76 1022.40 1022.06 1021.75 1021.44 1021.13 1020.80 1020.46 1020.10 1019.72 1019.32 1018.90 1018.46 1018.01 1017.55 1017.09 1016.63
1026.39 1026.58 1026.75 1026.91 1027.05 1027.18 1027.29 1027.41 1027.52 1027.63 1027.73 1027.81 1027.87 1027.87 1027.81 1027.67 1027.44 1027.13 1026.74 1026.28 1025.78 1025.25 1024.71 1024.20 1023.71 1023.27 1022.88 1022.54 1022.23 1021.95 1021.67 1021.39 1021.10 1020.78 1020.42 1020.03 1019.61 1019.16 1018.70 1018.21 1017.72 1017.23 1016.75
1026.77 1026.95 1027.10 1027.24 1027.35 1027.45 1027.53 1027.61 1027.69 1027.77 1027.85 1027.92 1027.97 1027.96 1027.90 1027.77 1027.55 1027.24 1026.86 1026.40 1025.90 1025.38 1024.85 1024.34 1023.87 1023.45 1023.08 1022.76 1022.48 1022.22 1021.97 1021.71 1021.43 1021.12 1020.76 1020.35 1019.91 1019.43 1018.93 1018.41 1017.89 1017.37 1016.86
1027.06 1027.22 1027.35 1027.45 1027.53 1027.58 1027.61 1027.65 1027.68 1027.73 1027.77 1027.81 1027.82 1027.81 1027.74 1027.61 1027.41 1027.13 1026.78 1026.36 1025.91 1025.42 1024.94 1024.48 1024.06 1023.68 1023.35 1023.06 1022.81 1022.58 1022.35 1022.10 1021.81 1021.49 1021.11 1020.68 1020.20 1019.69 1019.14 1018.59 1018.03 1017.47 1016.92
1027.28 1027.41 1027.50 1027.56 1027.59 1027.59 1027.58 1027.56 1027.55 1027.54 1027.54 1027.54 1027.53 1027.49 1027.42 1027.30 1027.12 1026.87 1026.57 1026.22 1025.84 1025.43 1025.03 1024.65 1024.30 1023.98 1023.71 1023.47 1023.25 1023.04 1022.81 1022.55 1022.25 1021.90 1021.48 1021.01 1020.49 1019.92 1019.34 1018.73 1018.12 1017.52 1016.93
1027.43 1027.51 1027.56 1027.58 1027.56 1027.52 1027.46 1027.40 1027.35 1027.30 1027.25 1027.22 1027.18 1027.12 1027.04 1026.93 1026.78 1026.58 1026.34 1026.06 1025.76 1025.46 1025.15 1024.86 1024.60 1024.36 1024.15 1023.96 1023.77 1023.57 1023.34 1023.07 1022.74 1022.34 1021.88 1021.36 1020.78 1020.16 1019.51 1018.84 1018.18 1017.52 1016.86
1027.52 1027.55 1027.55 1027.53 1027.48 1027.40 1027.32 1027.23 1027.15 1027.07 1027.01 1026.94 1026.88 1026.81 1026.73 1026.62 1026.50 1026.34 1026.16 1025.96 1025.75 1025.53 1025.33 1025.13 1024.96 1024.79 1024.65 1024.50 1024.33 1024.14 1023.90 1023.61 1023.24 1022.80 1022.29 1021.71 1021.07 1020.38 1019.66 1018.93 1018.20 1017.46 1016.73
1027.56 1027.55 1027.51 1027.45 1027.37 1027.29 1027.19 1027.10 1027.02 1026.93 1026.86 1026.79 1026.72 1026.64 1026.56 1026.46 1026.35 1026.23 1026.10 1025.96 1025.82 1025.68 1025.56 1025.44 1025.34 1025.24 1025.14 1025.03 1024.88 1024.69 1024.44 1024.12 1023.72 1023.24 1022.68 1022.04 1021.34 1020.59 1019.80 1018.99 1018.18 1017.36 1016.55
1027.58 1027.52 1027.44 1027.36 1027.28 1027.19 1027.12 1027.04 1026.97 1026.91 1026.85 1026.78 1026.71 1026.64 1026.56 1026.47 1026.37 1026.27 1026.17 1026.07 1025.97 1025.89 1025.82 1025.76 1025.70 1025.65 1025.58 1025.48 1025.34 1025.15 1024.89 1024.55 1024.12 1023.60 1023.00 1022.31 1021.55 1020.74 1019.89 1019.01 1018.12 1017.22 1016.33
1027.58 1027.48 1027.38 1027.29 1027.21 1027.15 1027.10 1027.06 1027.02 1026.99 1026.95 1026.91 1026.85 1026.79 1026.71 1026.62 1026.53 1026.43 1026.34 1026.25 1026.18 1026.11 1026.06 1026.03 1025.99 1025.95 1025.89 1025.79 1025.66 1025.45 1025.18 1024.82 1024.37 1023.83 1023.20 1022.48 1021.68 1020.82 1019.91 1018.97 1018.00 1017.03 1016.06
1027.58 1027.45 1027.33 1027.24 1027.18 1027.14 1027.13 1027.13 1027.13 1027.14 1027.13 1027.11 1027.07 1027.02 1026.94 1026.85 1026.75 1026.64 1026.54 1026.45 1026.37 1026.30 1026.24 1026.20 1026.15 1026.10 1026.03 1025.93 1025.78 1025.56 1025.28 1024.91 1024.45 1023.90 1023.25 1022.50 1021.68 1020.79 1019.84 1018.84 1017.82 1016.78 1015.75
1027.57 1027.42 1027.30 1027.22 1027.17 1027.16 1027.18 1027.21 1027.26 1027.29 1027.31 1027.32 1027.29 1027.24 1027.16 1027.06 1026.95 1026.83 1026.71 1026.60 1026.49 1026.40 1026.32 1026.25 1026.18 1026.10 1026.01 1025.88 1025.71 1025.48 1025.19 1024.81 1024.35 1023.79 1023.14 1022.39 1021.55 1020.64 1019.66 1018.63 1017.56 1016.48 1015.39
1027.54 1027.39 1027.27 1027.19 1027.16 1027.17 1027.21 1027.27 1027.33 1027.39 1027.43 1027.44 1027.42 1027.37 1027.29 1027.19 1027.06 1026.92 1026.78 1026.64 1026.51 1026.39 1026.28 1026.17 1026.07 1025.96 1025.83 1025.68 1025.49 1025.25 1024.94 1024.57 1024.10 1023.55 1022.90 1022.16 1021.32 1020.40 1019.40 1018.34 1017.25 1016.13 1015.02
Thickness
5793 5791 5788 5784 5781 5778 5774 5772 5770 5768 5767 5765 5764 5761 5759 5758 5756 5754 5752 5751 5749 5747 5747 5746 5745 5745 5744 5744 5743 5741 5739 5736 5728 5731 5735 5736 5735 5733 5731 5730 5728 5725 5723
5793 5789 5786 5783 5780 5776 5773 5771 5769 5766 5765 5764 5762 5760 5758 5756 5755 5753 5750 5749 5747 5745 5745 5744 5744 5744 5742 5741 5740 5739 5737 5736 5730 5725 5728 5730 5730 5729 5728 5726 5725 5723 5722
5792 5787 5784 5781 5778 5774 5772 5770 5767 5765 5763 5762 5761 5757 5755 5754 5752 5751 5749 5747 5746 5744 5744 5742 5742 5741 5738 5738 5737 5736 5734 5734 5731 5726 5724 5726 5725 5725 5723 5721 5721 5720 5719
5790 5785 5781 5778 5775 5772 5770 5767 5765 5762 5760 5759 5757 5755 5753 5751 5750 5748 5746 5745 5744 5743 5743 5741 5739 5738 5736 5735 5734 5732 5731 5729 5727 5723 5721 5720 5719 5720 5717 5713 5712 5713 5712
5786 5782 5778 5776 5773 5770 5767 5764 5762 5760 5758 5756 5753 5750 5749 5747 5746 5745 5743 5742 5740 5740 5739 5738 5736 5735 5734 5733 5731 5728 5726 5723 5721 5718 5715 5713 5712 5710 5708 5708 5705 5705 5705
5783 5779 5777 5773 5770 5766 5763 5760 5757 5755 5754 5751 5748 5745 5744 5743 5742 5740 5739 5738 5736 5735 5733 5732 5731 5730 5729 5727 5725 5723 5721 5717 5714 5711 5708 5706 5705 5704 5703 5702 5699 5696 5693
5779 5776 5773 5770 5766 5762 5760 5756 5753 5750 5748 5745 5743 5741 5739 5737 5736 5735 5733 5732 5731 5729 5728 5726 5725 5725 5724 5722 5719 5717 5714 5711 5709 5706 5701 5699 5698 5697 5696 5694 5692 5689 5687
5773 5771 5769 5766 5762 5758 5755 5751 5748 5746 5743 5740 5737 5736 5734 5731 5729 5728 5727 5726 5725 5724 5722 5721 5718 5716 5716 5714 5713 5709 5706 5703 5701 5698 5695 5692 5691 5690 5688 5686 5684 5683 5682
5767 5765 5763 5761 5757 5753 5749 5746 5744 5741 5738 5735 5732 5730 5727 5724 5723 5722 5721 5721 5719 5717 5716 5714 5712 5710 5708 5707 5704 5701 5697 5694 5692 5690 5688 5685 5683 5681 5679 5676 5674 5671 5668
5761 5760 5758 5755 5751 5747 5745 5741 5739 5737 5733 5730 5726 5724 5722 5719 5716 5716 5715 5715 5712 5711 5709 5706 5703 5701 5699 5697 5695 5691 5687 5685 5683 5681 5678 5676 5674 5671 5668 5665 5663 5659 5656
5756 5754 5751 5749 5746 5742 5739 5737 5734 5731 5728 5724 5720 5718 5716 5712 5709 5708 5707 5707 5705 5703 5700 5697 5694 5691 5689 5687 5685 5683 5679 5676 5674 5672 5670 5667 5665 5662 5658 5655 5652 5649 5645
5750 5746 5743 5741 5739 5737 5733 5730 5728 5725 5721 5717 5714 5711 5708 5705 5702 5700 5699 5698 5697 5694 5691 5688 5685 5682 5679 5677 5675 5673 5670 5668 5666 5663 5660 5656 5653 5651 5648 5645 5642 5640 5637
5741 5738 5736 5733 5731 5729 5725 5723 5720 5718 5715 5712 5708 5704 5701 5698 5695 5693 5691 5689 5687 5685 5681 5678 5675 5673 5670 5667 5664 5663 5661 5658 5656 5652 5648 5645 5643 5640 5638 5634 5631 5629 5626
5732 5729 5727 5724 5721 5719 5717 5714 5711 5708 5706 5703 5700 5697 5694 5690 5687 5684 5682 5680 5677 5675 5672 5668 5666 5663 5661 5658 5655 5653 5650 5648 5645 5641 5638 5635 5633 5630 5627 5623 5620 5617 5614
5723 5721 5719 5716 5712 5707 5702 5697 5698 5694 5693 5693 5692 5689 5685 5680 5675 5673 5672 5671 5669 5666 5663 5661 5658 5655 5651 5648 5646 5643 5640 5636 5632 5629 5626 5623 5621 5618 5614 5611 5608 5605 5601
5715 5714 5712 5709 5704 5700 5694 5687 5682 5682 5681 5681 5680 5678 5673 5669 5666 5665 5663 5661 5658 5656 5654 5651 5647 5644 5641 5638 5635 5631 5627 5623 5620 5618 5615 5612 5609 5605 5601 5599 5595 5592 5589
5708 5706 5704 5701 5697 5693 5689 5685 5678 5672 5670 5668 5666 5665 5663 5660 5657 5655 5654 5651 5649 5647 5644 5640 5637 5633 5630 5627 5623 5619 5615 5612 5609 5606 5603 5599 5596 5593 5589 5586 5583 5579 5576
5701 5699 5697 5695 5692 5688 5683 5680 5676 5671 5665 5659 5655 5653 5652 5650 5648 5646 5644 5643 5640 5637 5634 5629 5625 5621 5618 5614 5610 5607 5603 5599 5596 5593 5590 5586 5583 5580 5576 5573 5570 5566 5563
5693 5691 5690 5687 5684 5680 5677 5673 5669 5664 5659 5653 5649 5644 5642 5640 5638 5636 5634 5632 5629 5625 5621 5617 5613 5609 5605 5601 5598 5595 5591 5587 5583 5580 5576 5572 5569 5566 5563 5560 5557 5553 5551
5682 5681 5680 5678 5676 5672 5669 5665 5660 5655 5650 5646 5641 5638 5635 5633 5631 5627 5623 5620 5617 5613 5609 5605 5601 5598 5593 5589 5586 5582 5578 5574 5570 5567 5563 5559 5556 5553 5550 5547 5544 5542 5539
5673 5672 5670 5668 5666 5663 5659 5656 5652 5648 5642 5637 5632 5628 5626 5624 5620 5616 5612 5608 5605 5601 5597 5593 5590 5585 5580 5576 5573 5569 5565 5560 5556 5552 5549 5546 5544 5540 5537 5534 5532 5529 5526
5663 5661 5659 5657 5654 5651 5649 5646 5642 5638 5632 5627 5622 5618 5614 5612 5609 5605 5601 5596 5592 5587 5584 5580 5577 5571 5567 5563 5560 5555 5550 5544 5540 5537 5535 5532 5529 5527 5524 5522 5519 5515 5512
5652 5651 5649 5646 5643 5639 5638 5636 5632 5627 5623 5618 5613 5609 5605 5601 5597 5593 5588 5583 5579 5575 5571 5567 5563 5558 5554 5550 5545 5540 5534 5529 5525 5523 5520 5518 5516 5513 5511 5508 5505 5503 5499
5642 5640 5638 5635 5632 5630 5627 5624 5620 5616 5612 5607 5603 5599 5594 5590 5585 5580 5576 5571 5567 5563 5559 5555 5551 5546 5541 5536 5531 5525 5519 5515 5512 5510 5507 5504 5503 5501 5499 5496 5493 5490 5487
5632 5630 5627 5624 5622 5619 5616 5612 5608 5605 5601 5596 5592 5588 5584 5579 5574 5569 5564 5560 5556 5552 5547 5543 5539 5534 5528 5523 5517 5512 5507 5504 5501 5497 5495 5493 5491 5490 5488 5485 5482 5479 5476
5621 5619 5617 5614 5612 5609 5605 5601 5598 5595 5591 5586 5581 5577 5573 5568 5563 5559 5554 5550 5546 5541 5536 5531 5526 5520 5515 5510 5505 5501 5497 5494 5491 5488 5485 5483 5482 5479 5476 5474 5472 5469 5466